Location: St. Louis
(38.6270°N, 90.1994°W)
Time: 10:44:38
(UTC-06:00)

A-11 Canister half - Pass Details

Date: 13 December 2021
Orbit: 1524 x 1684 km, 47.3° (Epoch: 25 January)

Event Time Altitude Azimuth Distance (km) Brightness Sun altitude
Rises 23:23:35 0° 249° (WSW) 4,890 - -73.2°
Reaches altitude 10° 23:26:44 10° 251° (WSW) 3,918 - -73.4°
Maximum altitude 23:36:50 72° 336° (NNW) 1,753 - -74.1°
Drops below altitude 10° 23:47:01 10° 61° (ENE) 3,940 - -74.5°
Sets 23:50:12 0° 63° (ENE) 4,919 - -74.6°
